Tillbaka till svenska Fidonet
English   Information   Debug  
FILM   0/18
FNEWS_PUBLISH   4800
FN_SYSOP   42074
FN_SYSOP_OLD1   71952
FTP_FIDO   0/2
FTSC_PUBLIC   0/13902
FUNNY   0/4886
GENEALOGY.EUR   0/71
GET_INFO   105
GOLDED   0/408
HAM   7399/16493
HOLYSMOKE   0/6791
HOT_SITES   0/1
HTMLEDIT   0/71
HUB203   466
HUB_100   264
HUB_400   39
HUMOR   0/29
IC   0/2851
INTERNET   0/424
INTERUSER   0/3
IP_CONNECT   719
JAMNNTPD   0/233
JAMTLAND   0/47
KATTY_KORNER   0/41
LAN   0/16
LINUX-USER   0/19
LINUXHELP   0/1155
LINUX   0/22274
LINUX_BBS   0/957
mail   18.68
mail_fore_ok   249
MENSA   0/341
MODERATOR   0/102
MONTE   0/992
MOSCOW_OKLAHOMA   0/1245
MUFFIN   0/783
MUSIC   0/321
N203_STAT   938
N203_SYSCHAT   313
NET203   321
NET204   69
NET_DEV   0/10
NORD.ADMIN   0/101
NORD.CHAT   0/2572
NORD.FIDONET   189
NORD.HARDWARE   0/28
NORD.KULTUR   0/114
NORD.PROG   0/32
NORD.SOFTWARE   0/88
NORD.TEKNIK   0/58
NORD   0/453
OCCULT_CHAT   0/93
OS2BBS   0/787
OS2DOSBBS   0/580
OS2HW   0/42
OS2INET   0/37
OS2LAN   0/134
OS2PROG   0/36
OS2REXX   0/113
OS2USER-L   207
OS2   0/4820
OSDEBATE   0/18996
PASCAL   0/490
PERL   0/457
PHP   0/45
POINTS   0/405
POLITICS   0/29554
POL_INC   0/14731
PSION   103
R20_ADMIN   1132
R20_AMATORRADIO   0/2
R20_BEST_OF_FIDONET   15
R20_CHAT   0/895
R20_DEPP   0/3
R20_DEV   400
R20_ECHO2   1712
R20_ECHOPRES   0/35
R20_ESTAT   0/719
R20_FIDONETPROG...
...RAM.MYPOINT
  0/2
R20_FIDONETPROGRAM   0/22
R20_FIDONET   0/248
R20_FILEFIND   0/24
R20_FILEFOUND   0/22
R20_HIFI   0/3
R20_INFO2   3604
R20_INTERNET   0/12940
R20_INTRESSE   0/60
R20_INTR_KOM   0/99
R20_KANDIDAT.CHAT   42
R20_KANDIDAT   28
R20_KOM_DEV   112
R20_KONTROLL   0/13360
R20_KORSET   0/18
R20_LOKALTRAFIK   0/24
R20_MODERATOR   0/1852
R20_NC   76
R20_NET200   245
R20_NETWORK.OTH...
...ERNETS
  0/13
R20_OPERATIVSYS...
...TEM.LINUX
  0/44
R20_PROGRAMVAROR   0/1
R20_REC2NEC   534
R20_SFOSM   0/341
R20_SF   0/108
R20_SPRAK.ENGLISH   0/1
R20_SQUISH   107
R20_TEST   2
R20_WORST_OF_FIDONET   20
RAR   0/9
RA_MULTI   106
RA_UTIL   0/162
REGCON.EUR   0/2066
REGCON   0/13
SCIENCE   0/1206
SF   0/239
SHAREWARE_SUPPORT   0/5146
SHAREWRE   0/14
SIMPSONS   0/169
STATS_OLD1   0/2539.065
STATS_OLD2   0/2530
STATS_OLD3   0/2395.095
STATS_OLD4   0/1692.25
SURVIVOR   0/495
SYSOPS_CORNER   0/3
SYSOP   0/84
TAGLINES   0/112
TEAMOS2   0/4530
TECH   0/2617
TEST.444   0/105
TRAPDOOR   0/19
TREK   0/755
TUB   0/290
UFO   0/40
UNIX   0/1316
USA_EURLINK   0/102
USR_MODEMS   0/1
VATICAN   0/2740
VIETNAM_VETS   0/14
VIRUS   0/378
VIRUS_INFO   0/201
VISUAL_BASIC   0/473
WHITEHOUSE   0/5187
WIN2000   0/101
WIN32   0/30
WIN95   2111/4291
WIN95_OLD1   18699/70272
WINDOWS   0/1517
WWB_SYSOP   0/419
WWB_TECH   0/810
ZCC-PUBLIC   0/1
ZEC   4

 
4DOS   0/134
ABORTION   0/7
ALASKA_CHAT   0/506
ALLFIX_FILE   0/1313
ALLFIX_FILE_OLD1   0/7997
ALT_DOS   0/152
AMATEUR_RADIO   0/1039
AMIGASALE   0/14
AMIGA   0/331
AMIGA_INT   0/1
AMIGA_PROG   0/20
AMIGA_SYSOP   0/26
ANIME   0/15
ARGUS   0/924
ASCII_ART   0/340
ASIAN_LINK   0/651
ASTRONOMY   0/417
AUDIO   0/92
AUTOMOBILE_RACING   0/105
BABYLON5   0/17862
BAG   135
BATPOWER   0/361
BBBS.ENGLISH   0/382
BBSLAW   0/109
BBS_ADS   0/5290
BBS_INTERNET   0/507
BIBLE   0/3563
BINKD   0/1119
BINKLEY   0/215
BLUEWAVE   0/2173
CABLE_MODEMS   0/25
CBM   0/46
CDRECORD   0/66
CDROM   0/20
CLASSIC_COMPUTER   0/378
COMICS   0/15
CONSPRCY   0/899
COOKING   40405
COOKING_OLD1   0/24719
COOKING_OLD2   0/40862
COOKING_OLD3   0/37489
COOKING_OLD4   0/35496
COOKING_OLD5   9370
C_ECHO   0/189
C_PLUSPLUS   0/31
DIRTY_DOZEN   0/201
DOORGAMES   0/2221
DOS_INTERNET   0/196
duplikat   6102
ECHOLIST   0/18295
EC_SUPPORT   0/318
ELECTRONICS   0/359
ELEKTRONIK.GER   1534
ENET.LINGUISTIC   0/13
ENET.POLITICS   0/4
ENET.SOFT   0/11701
ENET.SYSOP   34219
ENET.TALKS   0/32
ENGLISH_TUTOR   0/2000
EVOLUTION   0/1335
FDECHO   0/217
FDN_ANNOUNCE   0/7068
FIDONEWS   24798
FIDONEWS_OLD1   0/49742
FIDONEWS_OLD2   0/35949
FIDONEWS_OLD3   0/30874
FIDONEWS_OLD4   0/37224
FIDO_SYSOP   12913
FIDO_UTIL   0/180
FILEFIND   0/209
FILEGATE   0/212
Möte HAM, 16493 texter
 lista första sista föregående nästa
Text 5141, 921 rader
Skriven 2012-03-16 00:02:23 av Amsat List (1:323/120.0)
Ärende: [keps] orb12075.amsa
============================
[keps] orb12075.amsa

Sender: keps-bounces@amsat.org
Return-Path: <keps-bounces@amsat.org>
X-Rcpt: craig.healy@chowda.com
X-UIDL: 1331874005.828

SB KEPS @ AMSAT  $ORB12075.O
Orbital Elements  12075.OSCAR

HR AMSAT ORBITAL ELEMENTS FOR OSCAR SATELLITES
FROM WA5QGD FORT WORTH,TX March 15, 2012
Send SUBSCRIBE KEPS/UNSUBSCRIBE KEPS to majordomo@amsat.org only
BID: ORB12075.O
TO ALL RADIO AMATEURS BT

Satellite: AO-07
Catalog number: 07530
Epoch time:      12075.53343287
Element set:     331
Inclination:      101.4018 deg
RA of node:       076.3695 deg
Eccentricity:    0.0012094
Arg of perigee:   105.8368 deg
Mean anomaly:     254.4040 deg
Mean motion:   12.53588154 rev/day
Decay rate:       -2.7e-07 rev/day^2
Epoch rev:           70831
Checksum:              278

Satellite: FO-29
Catalog number: 24278
Epoch time:      12074.82409920
Element set:    0806
Inclination:      098.5741 deg
RA of node:       187.8547 deg
Eccentricity:    0.0349680
Arg of perigee:   273.6890 deg
Mean anomaly:     082.4331 deg
Mean motion:   13.52978227 rev/day
Decay rate:        5.2e-07 rev/day^2
Epoch rev:           76919
Checksum:              352

Satellite: SO-33
Catalog number: 25509
Epoch time:      12073.61287409
Element set:    0185
Inclination:      031.4308 deg
RA of node:       154.5103 deg
Eccentricity:    0.0352369
Arg of perigee:   087.1003 deg
Mean anomaly:     276.9883 deg
Mean motion:   14.28680178 rev/day
Decay rate:       3.04e-06 rev/day^2
Epoch rev:           69897
Checksum:              320

Satellite: RS-22
Catalog number: 27939
Epoch time:      12075.70266082
Element set:     174
Inclination:      097.8209 deg
RA of node:       281.2766 deg
Eccentricity:    0.0013135
Arg of perigee:   197.6009 deg
Mean anomaly:     162.4748 deg
Mean motion:   14.63932811 rev/day
Decay rate:       6.77e-06 rev/day^2
Epoch rev:           45220
Checksum:              317

Satellite: VO-52
Catalog number: 28650
Epoch time:      12074.78718574
Element set:    0051
Inclination:      097.6075 deg
RA of node:       110.3260 deg
Eccentricity:    0.0026493
Arg of perigee:   353.8582 deg
Mean anomaly:     006.2329 deg
Mean motion:   14.82741198 rev/day
Decay rate:      1.242e-05 rev/day^2
Epoch rev:           37098
Checksum:              312

Satellite: HO-68
Catalog number: 36122
Epoch time:      12075.65028170
Element set:     288
Inclination:      100.3740 deg
RA of node:       136.8449 deg
Eccentricity:    0.0007101
Arg of perigee:   325.3339 deg
Mean anomaly:     034.7317 deg
Mean motion:   13.16293846 rev/day
Decay rate:       -4.4e-07 rev/day^2
Epoch rev:           10808
Checksum:              282

/EX
SB KEPS @ AMSAT  $ORB12075.D
Orbital Elements  12075.MICROS

HR AMSAT ORBITAL ELEMENTS FOR THE MICROSATS
FROM WA5QGD FORT WORTH,TX March 15, 2012
Send SUBSCRIBE KEPS/UNSUBSCRIBE KEPS to majordomo@amsat.org only
BID: ORB12075.D
TO ALL RADIO AMATEURS BT

Satellite: UO-11
Catalog number: 14781
Epoch time:      12075.91392301
Element set:     814
Inclination:      097.9666 deg
RA of node:       136.2088 deg
Eccentricity:    0.0008862
Arg of perigee:   342.7361 deg
Mean anomaly:     017.3552 deg
Mean motion:   14.80344709 rev/day
Decay rate:       3.96e-06 rev/day^2
Epoch rev:           50613
Checksum:              306

Satellite: AO-16
Catalog number: 20439
Epoch time:      12075.88030704
Element set:     420
Inclination:      098.4209 deg
RA of node:       021.9122 deg
Eccentricity:    0.0011864
Arg of perigee:   075.8420 deg
Mean anomaly:     284.4077 deg
Mean motion:   14.32026746 rev/day
Decay rate:       1.74e-06 rev/day^2
Epoch rev:           15664
Checksum:              282

Satellite: LO-19
Catalog number: 20442
Epoch time:      12074.86961708
Element set:    0348
Inclination:      098.3866 deg
RA of node:       024.2710 deg
Eccentricity:    0.0012809
Arg of perigee:   072.2144 deg
Mean anomaly:     288.0433 deg
Mean motion:   14.32246739 rev/day
Decay rate:       2.31e-06 rev/day^2
Epoch rev:           15668
Checksum:              303

Satellite: AO-27
Catalog number: 22825
Epoch time:      12074.89016720
Element set:      54
Inclination:      098.5656 deg
RA of node:       019.2166 deg
Eccentricity:    0.0008208
Arg of perigee:   191.3034 deg
Mean anomaly:     168.7963 deg
Mean motion:   14.29437344 rev/day
Decay rate:        5.6e-07 rev/day^2
Epoch rev:           96300
Checksum:              308

Satellite: IO-26
Catalog number: 22826
Epoch time:      12074.97901427
Element set:    0805
Inclination:      098.5598 deg
RA of node:       019.6984 deg
Eccentricity:    0.0008605
Arg of perigee:   185.2757 deg
Mean anomaly:     174.8332 deg
Mean motion:   14.29709233 rev/day
Decay rate:       1.77e-06 rev/day^2
Epoch rev:           96314
Checksum:              345

Satellite: GO-32
Catalog number: 25397
Epoch time:      12075.47569770
Element set:     726
Inclination:      098.3556 deg
RA of node:       058.8405 deg
Eccentricity:    0.0001460
Arg of perigee:   157.6458 deg
Mean anomaly:     202.4784 deg
Mean motion:   14.23262515 rev/day
Decay rate:       1.27e-06 rev/day^2
Epoch rev:           71069
Checksum:              320

Satellite: NO-44
Catalog number: 26931
Epoch time:      12074.74671729
Element set:    0994
Inclination:      067.0537 deg
RA of node:       003.7383 deg
Eccentricity:    0.0006812
Arg of perigee:   279.6077 deg
Mean anomaly:     080.4272 deg
Mean motion:   14.29770214 rev/day
Decay rate:       1.67e-06 rev/day^2
Epoch rev:           54574
Checksum:              324

